Terminal Aerodrome Forecast
Issued by NWS Portland, OR

Home | Current Version | Previous Version | Text Only | Print | Product List | Glossary On
Versions: 1 2 3 4 5 6 7 8 9 10 11 12 13 14 15 16 17 18 19 20 21 22 23 24 25 26 27 28 29 30 31 32 33 34 35 36 37 38 39
000
FTUS46 KPQR 311128
TAFAST
TAF
KAST 311128Z 3112/0112 VRB04KT P6SM SKC
     FM311300 31005KT P6SM SCT009
     FM311700 31014KT P6SM SKC
     FM010800 31006KT P6SM BKN020
     FM011000 31004KT P6SM OVC010=

USA.gov is the U.S. government's official web portal to all federal, state and local government web resources and services.